Starlink 36437

operational
NORAD ID: 67465 Int'l Des: 2026-008 Owner: SPXS Country: US Constellation: starlink
LEOCIRCULAR

About Starlink 36437

Description loading...

Live Position

Loading 3D Globe...

Upcoming Passes

Altitude History

Altitude vs Time

uPlot chart will show altitude changes over time

Two-Line Element Set

1 67465U 26008W 26065.47746337 .00033714 00000-0 12283-2 0 9990
2 67465 42.9963 223.1172 0000677 234.7188 125.3601 15.27600283 9083
Epoch: Mar 6, 2026 • Age: 39 hours

Current Status

Altitude 486.0 km
Velocity 7.63 km/s
Sub-Earth Point 41.80°N, 59.85°W
Launch Date Jan 14, 2026
Age 0.1 years
Type internet

Technical Details

Classification Payload
Mass 575.00 kg
Dry Mass 530.00 kg
Total Mass 575.00 kg
Length 0.30 m
Diameter 4.10 m
Span 29.00 m
Shape Box + pan
Manufacturer SPXS
Bus Type Starlink V2MO
Phase Status In Orbit
Owner/State SPXS/US

Large Constellations

Loading constellations...